Hourly Data Report for February 01, 2018

MIRAMICHI RCS
NEW BRUNSWICK

47°00'34.000" N
65°27'54.000" W
33.00 m
8100989
71744
ACQ

Download Data

Hourly Data (February 2018)
Hourly Data Report for February 1, 2018
TIME
LST
Temp Definition
°C
Dew Point Definition
°C
Rel Hum Definition
%
Precip. Amount Definition
mm

Wind Dir Definition
10's deg

Wind Spd Definition
km/h
Visibility Definition
km
Stn Press Definition
kPa
Hmdx Definition


Wind Chill Definition


Weather Definition


00:00 -13.3 -18.7 64 0.0 23 10   101.06   -19 LegendNANA
01:00 -12.7 -18.1 64 0.0 25 9   101.08   -18 LegendNANA
02:00 -12.9 -17.8 66 0.0 24 9   101.12   -18 LegendNANA
03:00 -12.3 -17.0 68 0.0 22 9   101.17   -18 LegendNANA
04:00 -12.3 -14.6 83 0.0 17 4   101.09   -15 LegendNANA
05:00 -11.6 -13.5 86 0.2 10 6   100.97   -15 LegendNANA
06:00 -10.8 -12.8 86 0.0 13 2   100.97   -12 LegendNANA
07:00 -10.1 -12.0 86 0.0 16 2   100.98   -11 LegendNANA
08:00 -10.1 -11.9 87 0.0 15 2   100.96   -11 LegendNANA
09:00 -9.5 -11.7 84 0.0 0 1   100.95   -10 LegendNANA
10:00 -8.7 -11.3 81 0.0   0   100.95     LegendNANA
11:00 -6.3 -9.7 77 0.0 24 2   100.99   -7 LegendNANA
12:00 -4.8 -8.6 75 0.0 24 6   100.92   -8 LegendNANA
13:00 -3.7 -7.3 77 0.0 22 8   100.86   -7 LegendNANA
14:00 -3.2 -6.6 77 0.0 18 11   100.78   -7 LegendNANA
15:00 -3.0 -6.4 77 0.0 20 10   100.78   -7 LegendNANA
16:00 -2.5 -5.7 79 0.0 17 12   100.73   -7 LegendNANA
17:00 -2.2 -5.3 79 0.0 18 7   100.69   -5 LegendNANA
18:00 -2.6 -3.7 92 0.3 16 5   100.67   -5 LegendNANA
19:00 -2.8 -3.7 93 0.5 15 1   100.64   -3 LegendNANA
20:00 -2.1 -2.9 94 0.0 15 7   100.58   -5 LegendNANA
21:00 -1.7 -2.5 94 0.0 17 6   100.52   -4 LegendNANA
22:00 -0.5 -1.4 94 0.0 22 14   100.47   -5 LegendNANA
23:00 -0.1 -1.1 93 0.0 23 16   100.48   -5 LegendNANA

Notes on Data Quality.

Legend

  • E = Estimated
  • M = Missing
  • NA = Not Available*
  • [empty] = Indicates an unobserved value
Date modified: